Regional Weather Roundup
Issued by NWS Cleveland, OH

Home | Current Version | Previous Version | Graphics & Text | Print | Product List | Glossary On
Versions: 1 2 3 4 5 6 7 8 9 10 11 12 13 14 15 16 17 18 19 20 21 22 23 24 25 26 27 28 29 30 31 32 33 34 35 36 37 38 39 40 41 42 43 44 45 46 47 48 49 50
175
ASUS41 KCLE 290602
RWRCLE
OHIO REGIONAL WEATHER ROUNDUP
NATIONAL WEATHER SERVICE CLEVELAND, OH
200 AM EDT SAT APR 29 2017

NOTE: "FAIR" INDICATES FEW OR NO CLOUDS BELOW 12,000 FEET WITH NO
SIGNIFICANT WEATHER AND/OR OBSTRUCTIONS TO VISIBILITY.

OHZ001>008-015>018-024>027-034-035-043-044-290700-
   NORTHWEST OHIO

CITY           SKY/WX    TMP DP  RH WIND       PRES   REMARKS
DEFIANCE       CLOUDY    52  51  97 NE6       29.96F
FINDLAY        CLOUDY    57  53  86 N6        29.94S
TOLEDO EXPRESS LGT RAIN  53  53 100 CALM      29.97S FOG
TOLEDO EXEC    LGT RAIN  54  54 100 E3        29.98F FOG
LIMA           CLOUDY    56  56 100 N5        29.92S
$$

OHZ009>014-019>023-028>033-038-089-290700-
   NORTHEAST OHIO

CITY           SKY/WX    TMP DP  RH WIND       PRES   REMARKS
CLE-HOPKINS    LGT RAIN  58  53  84 CALM      30.00R
CLE-LAKEFRONT  LGT RAIN  57  53  86 W3        29.98R
CUY CO. ARPT   NOT AVBL
LORAIN-ELYRIA  CLOUDY    56  52  86 CALM      29.98S
ASHTABULA      LGT RAIN  56  53  90 S7        29.99S
AKRON-CANTON   CLOUDY    56  51  84 SE9       29.96F
WOOSTER        CLOUDY    54  51  90 SE8       29.96F
MANSFIELD      CLOUDY    55  52  89 S16G24    29.95F
YOUNGSTOWN     LGT RAIN  56  52  86 SE5       30.00S
$$

OHZ042-051>053-060>062-070>072-077>081-290700-
  SOUTHWEST OHIO

CITY           SKY/WX    TMP DP  RH WIND       PRES   REMARKS
CINC-COVINGTON LGT RAIN  64  64 100 SW10      29.94R
CINC-LUNKEN    LGT RAIN  64  63  96 SE22G32   29.85F
HAMILTON       CLOUDY    61  60  97 NW7       29.93R
DAYTON         TSTM      57  56  96 SE12      29.92F
WRIGHT-PAT AFB TSTM      59  59 100 SE20G26   29.90F FOG
DAYTON GENERAL LGT RAIN  59  57  93 NE10      29.92R
WILMINGTON     LGT RAIN  57  57 100 SE17G29   29.91F FOG
$$

OHZ036-037-039>041-045>050-054>059-063>069-073>076-082>088-290700-
  CENTRAL AND SOUTHEAST OHIO

CITY           SKY/WX    TMP DP  RH WIND       PRES   REMARKS
COLUMBUS       CLOUDY    57  55  93 SE9G21    29.96F
OSU AIRPORT    CLOUDY    58  56  93 SE9       29.96F
BOLTON FIELD   TSTM      56  55  95 SE9       29.97F
RICKENBACK AFB CLOUDY    56  56  97 E5        29.96F
NEWARK         CLOUDY    57  50  78 E3        29.98F
MARION         CLOUDY    57  52  83 SE12      29.95S
LANCASTER      LGT RAIN  59  55  87 SE8       29.98R
ZANESVILLE     LGT RAIN  56  54  93 S7        30.00F
NEW PHILLY     NOT AVBL
$$




USA.gov is the U.S. government's official web portal to all federal, state and local government web resources and services.